ロニオス彗星

201P/LONEOS (2002)

English version
Home page
Total 6,336 html files since Dec. 4, 1995
Updated on September 16, 2008

---------------------------------------------------------------------

・ プロフィール

符号 201P/2001 R1
発見日 2001年 9月10日
発見光度 17.6等
発見者 Lowell Observatory Near-Earth Object Search

・ 軌道要素

Epoch 2002 Feb. 15.0 TT = JDT 2452320.5
T 2002 Feb. 17.57306 TT                                 MPC
q   1.3605080            (2000.0)            P               Q
n   0.15201658     Peri.   24.73672     +0.49843564     -0.86400240
a   3.4770325      Node    35.48768     +0.77359776     +0.40623500
e   0.6087158      Incl.    7.03953     +0.39129071     +0.29744408
P   6.48

・ 星図

・ 光度変化

        m1 = 14.0 + 5 logΔ + 10.0 log r

---------------------------------------------------------------------

軌道要素はM.P.E.C. 2008-R76に掲載されたものです。
星図は StellaNavigator Ver.2.0 for Windows (アストロアーツ編著 / アスキー出版局刊) で作成したものです。
光度グラフはComet for Windowsで作成したものです。

---------------------------------------------------------------------

Copyright(C) 1995-2008 Seiichi Yoshida (comet@aerith.net). All rights reserved.